Flag for Argentina Weather past 2 weeks in Corrientes, Corrientes, Argentina

Now
88 °F

Partly sunny.


Feels Like: 96 °F
Forecast: 76 / 91 °F
Wind: 10 mph from North

Location: Resistencia Aero.

Current Time: Jan 28, 2015 at 11:58:13 AM

Latest Report: Jan 28, 2015 at 11:00 AM


Visibility: N/A

Pressure: 29.74 "Hg

Humidity: 62%

Dew point: 73 °F

Location of CorrientesLocation

Historic Weather in Corrientes — Graph

°F

Corrientes temperature yesterday

Maximum temperature yesterday: 97 °F (at 4:00 PM)
Minimum temperature yesterday: 75 °F (at 6:00 AM)
Average temperature yesterday: 84 °F

Past Weeks' High & Low Weather Summary

 TemperatureHumidityPressure
High99 °F (Jan 13, 2:00 PM)100% (Jan 14, 11:00 AM)30.07 "Hg (Jan 14, 11:00 AM)
Low66 °F (Jan 22, 6:00 AM)37% (Jan 26, 4:00 PM)29.56 "Hg (Jan 15, 1:00 AM)
Average81 °F79%29.86 "Hg
* Reported Jan 13 10:00 AM — Jan 28 10:00 AM, Corrientes, Weather by CustomWeather, © 2014

Note: Actual official high and low records may vary slightly from our data, if they occured in-between our weather recording intervals... More about our weather records

Advertising

Corrientes weather history for previous 24 hours

 ConditionsComfort  
Time TempWeatherWind HumidityBarometerVisibility
10:00 AM
Jan 28
84 °FSunny.9 mph70%29.74 "Hg10 mi
9:00 AM82 °FSunny.10 mph79%29.77 "Hg10 mi
8:00 AM77 °FSunny.5 mph89%29.74 "Hg10 mi
7:00 AM75 °FClear.7 mph94%29.74 "Hg5 mi
6:00 AM75 °FSunny.3 mph94%29.74 "Hg10 mi
5:00 AM75 °FClear.3 mph94%29.74 "Hg10 mi
4:00 AM75 °FClear.6 mph94%29.74 "Hg10 mi
3:00 AM75 °FClear.6 mph94%29.74 "Hg10 mi
2:00 AM77 °FClear.6 mph89%29.74 "Hg10 mi
12:00 AM79 °FClear.5 mph94%29.77 "Hg10 mi
11:00 PM
Jan 27
81 °FClear.6 mph84%29.74 "Hg10 mi
10:00 PM82 °FClear.8 mph79%29.74 "Hg10 mi
9:00 PM84 °FPartly cloudy.7 mph74%29.71 "HgN/A
8:00 PM88 °FPassing clouds.9 mph62%29.71 "HgN/A
6:00 PM93 °FScattered clouds.8 mph49%29.68 "HgN/A
5:00 PM91 °FScattered clouds.8 mph52%29.68 "HgN/A
4:00 PM97 °FScattered clouds.2 mph42%29.68 "HgN/A
3:00 PM95 °FMore clouds than sun.5 mph47%29.71 "HgN/A
2:00 PM93 °FBroken clouds.10 mph49%29.74 "HgN/A
1:00 PM90 °FBroken clouds.10 mph55%29.80 "HgN/A
12:00 PM91 °FPartly sunny.7 mph59%29.80 "HgN/A
11:00 AM86 °FMore clouds than sun.9 mph66%29.83 "HgN/A
Weather by CustomWeather, © 2014

See weather overviewHow to use our weather pages